Weather Service Report


595 
ASUS43 KMKX 281821
RWRWI 

WISCONSIN REGIONAL WEATHER ROUNDUP
NATIONAL WEATHER SERVICE MILWAUKEE/SULLIVAN WI
100 PM CDT THU AUG 28 2014

NOTE: "FAIR" INDICATES FEW OR NO CLOUDS BELOW 12,000 FEET WITH NO
SIGNIFICANT WEATHER AND/OR OBSTRUCTIONS TO VISIBILITY.

WIZ001-002-006>008-014>016-023>028-281900-
NORTHWEST WISCONSIN
  
CITY           SKY/WX    TMP DP  RH WIND       PRES   REMARKS
SUPERIOR ARPT  MOSUNNY   69  57  65 NE8       30.07F                  
6HR MIN TEMP:  46; 6HR MAX TEMP:  70;                                

ASHLAND        SUNNY     73  53  49 VRB3      30.10F                  
6HR MIN TEMP:  47; 6HR MAX TEMP:  73;                                

HAYWARD        MOSUNNY   71  54  54 SE9       30.10F                  
6HR MIN TEMP:  49; 6HR MAX TEMP:  71;                                

SIREN          CLOUDY    72  56  55 SE9       30.07F                  
6HR MIN TEMP:  51; 6HR MAX TEMP:  73;                                

RICE LAKE      PTSUNNY   71  56  59 SE6       30.09F                  
6HR MIN TEMP:  53; 6HR MAX TEMP:  71; 6HR PCP:  0.01;                

LADYSMITH      PTSUNNY   71  56  58 S6        30.12F                  
6HR MIN TEMP:  51; 6HR MAX TEMP:  72;                                

EAU CLAIRE     CLOUDY    72  60  66 E9        30.07F                  
6HR MIN TEMP:  55; 6HR MAX TEMP:  72;                                

MENOMONIE      CLOUDY    72  60  64 E9        30.07F                  
6HR MIN TEMP:  54; 6HR MAX TEMP:  72;                                

NEW RICHMOND   CLOUDY    71  60  66 E8        30.06F                  
6HR MIN TEMP:  56; 6HR MAX TEMP:  72;                                

OSCEOLA        PTSUNNY   72  61  67 SE9       30.08F                  
6HR MIN TEMP:  57; 6HR MAX TEMP:  72;                                

$$
 
WIZ003>005-009-010-017-018-281900-
NORTH CENTRAL WISCONSIN
  
CITY           SKY/WX    TMP DP  RH WIND       PRES   REMARKS
WOODRUFF       SUNNY     72  50  46 S9        30.13F                  
6HR MIN TEMP:  48; 6HR MAX TEMP:  72;                                

RHINELANDER    SUNNY     67  50  54 S5        30.15F                  
6HR MIN TEMP:  47; 6HR MAX TEMP:  69;                                

EAGLE RIVER    SUNNY     69  44  40 CALM      30.13F                  
6HR MIN TEMP:  40; 6HR MAX TEMP:  69;                                

LAND O LAKES   SUNNY     70  45  40 CALM      30.14F                  
6HR MIN TEMP:  42; 6HR MAX TEMP:  70;                                

PHILLIPS       PTSUNNY   71  54  55 S6        30.11F                  
6HR MIN TEMP:  47; 6HR MAX TEMP:  71;                                

TOMAHAWK       MOSUNNY   69  54  57 SE5       30.14F                  
6HR MIN TEMP:  40; 6HR MAX TEMP:  69;                                

MEDFORD        PTSUNNY   67  58  73 SE7       30.13F                  
6HR MIN TEMP:  48; 6HR MAX TEMP:  67;                                

MERRILL        MOSUNNY   67  57  71 S5        30.14F                  
6HR MIN TEMP:  46; 6HR MAX TEMP:  67;                                

$$
 
WIZ029-030-035-036-043>047-281900-
CENTRAL WISCONSIN
  
CITY           SKY/WX    TMP DP  RH WIND       PRES   REMARKS
WAUSAU         CLOUDY    64  58  80 E5        30.13F                  
6HR MIN TEMP:  51; 6HR MAX TEMP:  64;                                

MOSINEE        NOT AVBL                                               
MARSHFIELD     CLOUDY    69  61  75 SE7       30.12F                  
6HR MIN TEMP:  53; 6HR MAX TEMP:  69;                                

STEVENS POINT  CLOUDY    68  58  72 SE6       30.13F                  
6HR MIN TEMP:  51; 6HR MAX TEMP:  68;                                

WAUPACA        CLOUDY    73  61  66 SE6       30.13F                  
6HR MIN TEMP:  61; 6HR MAX TEMP:  74;                                

WAUTOMA        LGT RAIN  74  59  59 SE7       30.13S                  
6HR MIN TEMP:  58; 6HR MAX TEMP:  74; 6HR PCP: TRACE;                

WISC RAPIDS    PTSUNNY   72  60  66 CALM      30.13F                  
6HR MIN TEMP:  54; 6HR MAX TEMP:  73;                                

CAMP DOUGLAS   CLOUDY    73  64  73 SE9       30.10F                  
$$
 
WIZ011>013-019>022-031-037>040-048>050-281900-
NORTHEAST WISCONSIN
  
CITY           SKY/WX    TMP DP  RH WIND       PRES   REMARKS
ANTIGO         CLOUDY    66  57  74 S9        30.16S                  
6HR MIN TEMP:  50; 6HR MAX TEMP:  66;                                

STURGEON BAY   CLOUDY    63  54  72 SE9       30.17S                  
6HR MIN TEMP:  57; 6HR MAX TEMP:  64;                                

GREEN BAY      CLOUDY    68  59  73 S7        30.15S                  
6HR MIN TEMP:  60; 6HR MAX TEMP:  68;                                

MANITOWOC      CLOUDY    67  54  63 S10       30.16F                  
6HR MIN TEMP:  58; 6HR MAX TEMP:  68;                                

APPLETON       CLOUDY    70  57  64 SE8       30.15F                  
CLINTONVILLE   CLOUDY    68  59  73 S7        30.14F                  
OSHKOSH        PTSUNNY   72  61  68 VRB6      30.13F                  
6HR MIN TEMP:  60; 6HR MAX TEMP:  72;                                

$$
 
WIZ032>034-041-042-053>061-281900-
SOUTHWEST WISCONSIN
  
CITY           SKY/WX    TMP DP  RH WIND       PRES   REMARKS
LA CROSSE      LGT RAIN  73  62  68 S9        30.07F                  
6HR MIN TEMP:  60; 6HR MAX TEMP:  74; 6HR PCP: TRACE;                

SPARTA         CLOUDY    73  60  64 SE5       30.09F                  
6HR MIN TEMP:  54; 6HR MAX TEMP:  73;                                

VIROQUA        CLOUDY    70  64  81 SE7       30.10S                  
6HR MIN TEMP:  58; 6HR MAX TEMP:  71;                                

BOSCOBEL       CLOUDY    74  61  63 VRB5      30.09F                  
6HR MIN TEMP:  60; 6HR MAX TEMP:  74;                                

PRAIRIE DU CHI LGT RAIN  70  61  71 SE5       30.06F                  
6HR MIN TEMP:  60; 6HR MAX TEMP:  71;                                

PLATTEVILLE    FAIR      72  62  72 SE9       30.10F                  
6HR MIN TEMP:  62; 6HR MAX TEMP:  72;                                

$$

WIZ056-057-062-063-064-067-068-281900-
SOUTH CENTRAL WISCONSIN
  
CITY           SKY/WX    TMP DP  RH WIND       PRES   REMARKS
BARABOO/DELLS  PTSUNNY   75  57  54 SE8       30.11F                  
6HR MIN TEMP:  58; 6HR MAX TEMP:  76;                                

LONE ROCK      CLOUDY    77  62  59 SE9       30.09F                  
6HR MIN TEMP:  61; 6HR MAX TEMP:  78;                                

WATERTOWN      CLOUDY    74  61  63 SE8       30.12F                  
6HR MIN TEMP:  55; 6HR MAX TEMP:  74;                                

MADISON        PTSUNNY   74  59  59 SE9       30.11F                  
6HR MIN TEMP:  58; 6HR MAX TEMP:  75;                                

MIDDLETON      CLOUDY    74  60  59 SE6       30.11F                  
6HR MIN TEMP:  61; 6HR MAX TEMP:  76;                                

MONROE         PTSUNNY   73  61  64 E7        30.11F                  
JANESVILLE     MOSUNNY   75  57  53 SE9       30.11F                  
$$
 
WIZ051-052-058>065-066-070>072-281900-
SOUTHEAST WISCONSIN
  
CITY           SKY/WX    TMP DP  RH WIND       PRES   REMARKS
MILWAUKEE      PTSUNNY   70  54  56 SE13      30.15S                  
6HR MIN TEMP:  64; 6HR MAX TEMP:  70;                                

WAUKESHA       MOSUNNY   72  55  56 E10       30.15F                  
MILWAUKEE/TIMM SUNNY     70  52  52 E10       30.16S                  
RACINE         SUNNY     71  54  54 E9        30.16F                  
6HR MIN TEMP:  65; 6HR MAX TEMP:  71;                                

BURLINGTON     SUNNY     72  55  56 SE9       30.13F                  
6HR MIN TEMP:  53; 6HR MAX TEMP:  72;                                

KENOSHA        SUNNY     72  52  49 E10       30.14F                  
6HR MIN TEMP:  63; 6HR MAX TEMP:  72;                                

FOND DU LAC    CLOUDY    71  58  63 SE8       30.13F                  
6HR MIN TEMP:  58; 6HR MAX TEMP:  72;                                

SHEBOYGAN      SUNNY     70  55  59 SE8       30.16F                  
6HR MIN TEMP:  55; 6HR MAX TEMP:  70;                                

WEST BEND      MOSUNNY   70  52  52 SE10      30.15S                  
JUNEAU         PTSUNNY   71  59  65 SE8       30.14S                  
6HR MIN TEMP:  58; 6HR MAX TEMP:  72;                                

$$

LSZ147-162-281900-
LAKE SUPERIOR
  
STATION/POSITION TIME  TEMP    WIND        PRES    WAVE
                       AIR SEA DIR/SP/G            HT/PER
                 (UTC) (F)     (DEG/KT/KT) (MB)    (FT/S)
W MID LAKE BUOY  1750   58 57  150/  4/  4 1019.9F   1
DEVILS ISLAND    1800   62      60/  7/  7 1019.5F
PORT WING        1700   64      20/  6/  8 1019.3F
SAXON HARBOR     1700   64      40/  3/  5 1020.0
$$
 
LMZ867-665-643>646-281900-
LAKE MICHIGAN
  
STATION/POSITION TIME  TEMP    WIND        PRES    WAVE
                       AIR SEA DIR/SP/G            HT/PER
                 (UTC) (F)     (DEG/KT/KT) (MB)    (FT/S)
N MID LAKE BUOY  1750   62 66  170/  6/  8 1021.9F   0
NORTHPORT PIER   1700   64     140/ 11/ 13 1021.7F
SISTER BAY       1726   68     170/ 11/ 15   N/A
KEWAUNEE LAKESHO 1700   64     170/ 11/ 12 1020.7F
SHEBOYGAN LAKESH 1800   65 69  150/ 11/ 12 1021.5F
ATWATER BUOY     1800   67     120/ 10/ 14 1021.9F
MILWAUKEE LAKESH 1800   67     130/ 10/ 12   N/A
S MID LAKE BUOY  1750   65 69   90/ 10/ 12 1020.8F
KENOSHA   LAKESH 1800   69     110/  6/  9 1020.3F
$$

TC  - TEMPERATURE IN CELSIUS
VSB - VISIBILITY IN STATUTE MILES
WCI - WIND CHILL INDEX
HX  - HEAT INDEX


Return to Home page


Western Regional Climate Center, wrcc@dri.edu